Voltar ao catálogo

CZ-4C DEB

AtivoLEO
NORAD 43280·DEBRIS·🇨🇳 China

Lançado Apr 10, 2018 de Jiuquan Satellite Launch Center

Loading…

Próximas Passagens (próximas 24 horas)

TLE

AtualizadoSource: Space-Track

Época: Sep 14, 2026, 08:54 UTC

1 43280U 18034F   26257.37148414  .00000024  00000-0  15570-3 0  9994
2 43280  63.3943 239.8026 0277811   7.3427 353.1539 13.44428380413831

Acompanhe CZ-4C DEB em tempo real com AllMySat

Download on the App Store